FW5856 Weather Reports


Display with metric or nautical units.
time (UTC)temp
F
wind
direction
speed
MPH
gust
MPH
rain 1hr
in
rain 24hr
in
rain mn
in
humidity
%
barometer
mb
20260504081541 50 264 7.0 11.0 0.00 0.00 0.00 61 1001.3
20260504044550 55 271 4.0 6.0 0.00 0.00 0.00 53 1004.4
20260504043050 55 273 4.0 5.0 0.00 0.00 0.00 52 1004.8
20260504041549 55 268 5.0 7.0 0.00 0.00 0.00 52 1005.1
20260504040046 56 273 5.0 8.0 0.00 0.00 0.00 50 1005.3
20260504034554 56 290 5.0 8.0 0.00 0.00 0.00 50 1005.4
20260504033054 56 269 3.0 4.0 0.00 0.00 0.00 50 1005.5
20260504031559 57 276 4.0 7.0 0.00 0.00 0.00 50 1005.8
20260504030049 58 290 5.0 7.0 0.00 0.00 0.00 48 1005.9
20260504024549 60 282 5.0 7.0 0.00 0.00 0.00 46 1006.1
20260504023048 60 277 4.0 7.0 0.00 0.00 0.00 46 1006.1
20260504021548 60 280 5.0 6.0 0.00 0.00 0.00 45 1006.2
20260504020050 61 286 4.0 7.0 0.00 0.00 0.00 44 1006.2
20260504014557 62 271 5.0 7.0 0.00 0.00 0.00 43 1006.2
20260504013050 64 280 3.0 9.0 0.00 0.00 0.00 41 1006.2
20260504011552 66 271 4.0 6.0 0.00 0.00 0.00 39 1006.2
20260504010047 67 265 5.0 8.0 0.00 0.00 0.00 37 1006.3
20260504004546 69 271 5.0 10.0 0.00 0.00 0.00 36 1006.6
20260504003045 69 274 10.0 16.0 0.00 0.00 0.00 33 1006.6
20260504001543 70 264 10.0 19.0 0.00 0.00 0.00 32 1006.7
20260504000116 70 295 13.0 19.0 0.00 0.00 0.00 31 1006.8
20260503234549 70 276 9.0 21.0 0.00 0.00 0.00 33 1006.9
20260503233046 70 283 16.0 21.0 0.00 0.00 0.00 32 1007.1
20260503231546 70 299 11.0 18.0 0.00 0.00 0.00 30 1007.3
20260503230054 70 300 11.0 19.0 0.00 0.00 0.00 31 1007.2
20260503224545 70 303 11.0 23.0 0.00 0.00 0.00 31 1007.5
20260503223048 70 310 13.0 21.0 0.00 0.00 0.00 29 1007.5
20260503221545 70 298 12.0 20.0 0.00 0.00 0.00 28 1007.7
20260503220049 70 296 14.0 23.0 0.00 0.00 0.00 30 1007.8
20260503214548 70 300 15.0 25.0 0.00 0.00 0.00 31 1007.9
20260503213039 70 302 8.0 21.0 0.00 0.00 0.00 33 1008.1
20260503211548 70 312 14.0 26.0 0.00 0.00 0.00 33 1008.2
20260503210047 70 299 5.0 20.0 0.00 0.00 0.00 33 1008.5
20260503204546 70 312 12.0 21.0 0.00 0.00 0.00 34 1008.7
20260503203045 69 295 11.0 18.0 0.00 0.00 0.00 34 1009.0
20260503201547 69 322 12.0 20.0 0.00 0.00 0.00 33 1009.2
20260503200043 70 302 15.0 23.0 0.00 0.00 0.00 35 1009.3
20260503194539 69 321 12.0 24.0 0.00 0.00 0.00 36 1009.4
20260503193046 69 1 13.0 26.0 0.00 0.00 0.00 36 1009.6
20260503191538 68 340 12.0 22.0 0.00 0.00 0.00 36 1009.6
20260503190048 68 331 11.0 20.0 0.00 0.00 0.00 34 1009.9
20260503184600 67 304 14.0 26.0 0.00 0.00 0.00 37 1010.2
20260503183047 67 317 9.0 23.0 0.00 0.00 0.00 39 1010.2
20260503181551 67 315 13.0 18.0 0.00 0.00 0.00 36 1010.4
20260503180049 66 318 14.0 24.0 0.00 0.00 0.00 40 1010.6
20260503174551 66 309 14.0 24.0 0.00 0.00 0.00 41 1010.8
20260503173044 66 323 15.0 29.0 0.00 0.00 0.00 40 1010.8
20260503171603 65 319 13.0 23.0 0.00 0.00 0.00 43 1010.9